Home > Time Zones > World Clock > Weather > Cuba > Havana > Past weeks

Flag for Cuba Weather past 2 weeks in Havana, Cuba

Now
86 °F

Scattered clouds.


Feels Like: 95 °F
Forecast: 79 / 87 °F
Wind: 8 mph from South

Location: Aeropuerto Jose Marti - Rancho-Boyeros - Habana

Current Time: Aug 27, 2014 at 12:02:47 PM

Latest Report: Aug 27, 2014 at 10:55 AM


Visibility: 6 mi

Pressure: 29.92 "Hg

Humidity: 70%

Dew point: 75 °F

Location of HavanaLocation

Historic Weather in Havana — Graph

°F

Havana temperature yesterday

Maximum temperature yesterday: 84 °F (at 10:55 AM)
Minimum temperature yesterday: 75 °F (at 2:55 AM)
Average temperature yesterday: 79 °F

Past Weeks' High & Low Weather Summary

 TemperatureHumidityPressure
High93 °F (Aug 14, 1:55 PM)94% (Aug 13, 2:55 AM)30.09 "Hg (Aug 13, 2:55 AM)
Low70 °F (Aug 13, 6:55 AM)41% (Aug 14, 1:55 PM)29.74 "Hg (Aug 25, 4:55 PM)
Average81 °F74%29.99 "Hg
* Reported Aug 12 9:55 AM — Aug 27 9:55 AM, Havana, Weather by CustomWeather, © 2014

Note: Actual official high and low records may vary slightly from our data, if they occured in-between our weather recording intervals... More about our weather records

Advertising

Havana weather history for previous 24 hours

 ConditionsComfort  
Time TempWeatherWind HumidityBarometerVisibility
9:55 AM
Aug 27
84 °FPassing clouds.6 mph74%29.92 "Hg6 mi
8:55 AM82 °FPassing clouds.2 mph79%29.92 "Hg6 mi
7:55 AM75 °FPassing clouds.No wind89%29.89 "Hg6 mi
6:55 AM75 °FPassing clouds.5 mph89%29.86 "Hg6 mi
5:55 AM73 °FClear.2 mph94%29.86 "Hg6 mi
4:55 AM75 °FClear.3 mph89%29.86 "Hg6 mi
3:55 AM75 °FClear.No wind89%29.86 "Hg6 mi
2:55 AM75 °FClear.2 mph94%29.89 "Hg6 mi
1:51 AM77 °FClear.3 mph89%29.89 "Hg6 mi
12:55 AM77 °FClear.3 mph89%29.89 "Hg6 mi
11:55 PM
Aug 26
77 °FClear.5 mph89%29.89 "Hg6 mi
10:55 PM77 °FPassing clouds.5 mph89%29.89 "Hg6 mi
9:55 PM77 °FPassing clouds.3 mph89%29.86 "Hg6 mi
8:55 PM77 °FPassing clouds.1 mph89%29.86 "Hg6 mi
7:55 PM77 °FPartly sunny.3 mph89%29.83 "Hg5 mi
6:55 PM77 °FRain. Mostly cloudy.6 mph94%29.86 "Hg2 mi
6:04 PM77 °FLight rain. Partly sunny.9 mph89%29.83 "Hg4 mi
5:55 PM77 °FThunderstorms. Passing clouds.14 mph89%29.86 "Hg2 mi
4:55 PM84 °FPartly sunny.6 mph74%29.83 "Hg6 mi
3:55 PM84 °FPartly sunny.8 mph74%29.83 "Hg6 mi
2:55 PM81 °FPartly sunny.3 mph74%29.83 "Hg6 mi
1:55 PM79 °FRain. Partly sunny.9 mph79%29.86 "Hg6 mi
12:55 PM82 °FPartly sunny.7 mph79%29.86 "Hg5 mi
Weather by CustomWeather, © 2014

See weather overviewHow to use our weather pages